Weather in Ononsk

Russia / Zabaykalsky Krai     50°59′04″N   115°34′19″E
temp.,
°C
wind,
m/s
gust,
m/s
humid.,
%
clouds,
%
prec.,
mm/h
press.,
hPa
HPBL,
m
24 september, fri
fri2400:00+5wsw227955 0.0 102211
03:00+5wnw118715 0.0 102310
06:00+4sw11895 0.0 102410
09:00+6ssw00775 0.0 1024139
12:00+11ssw11565 0.0 1022748
15:00+14s224810 0.0 10201161
18:00+13sse2355100 0.0 1020123
21:00+10se226348 0.0 102014
25 september, sat
sat2500:00+8ese226668 0.0 102115
03:00+9se3559100 0.0 1021135
06:00+8se3668100 0.1 1021128
09:00+10ese376195 0.1 1021275
12:00+15sse5748100 0.0 1020846
15:00+18sse6852100 0.0 10171366
18:00+17se61160100 0.0 1015473
21:00+14se61570100 0.0 1014640
26 september, sun
sun2600:00+14sse91880100 1.3 1011759
03:00+13sse91787100 1.7 1009700
06:00+13sse71493100 2.6 1006659
09:00+13sse91493100 3.1 1005657
12:00+15s71089100 0.7 1003838
15:00+9wnw71183100 1.5 1005449
18:00+7wnw7118292 0.0 1007684
21:00+5w71182100 0.1 1010775
27 september, mon
mon2700:00+5w71169100 0.0 10111235
03:00+4w712755 0.0 1011664
06:00+2wsw511795 0.0 1011429
09:00+4sw712681 0.0 1011723
12:00+9wsw79485 0.0 10091315
15:00+12sw7104116 0.0 10072031
18:00+11sw694791 0.0 1006502
21:00+7w225623 0.0 100815
28 september, tue
tue2800:00+6nnw2257100 0.0 100826
03:00+3nw4967100 0.0 1008233
06:00+2nw5108199 0.1 1009456
09:00+3nw597145 0.3 1009728
12:00+6wnw895023 0.0 10091380
15:00+8wnw91040100 0.0 10072157
18:00+6wnw8114988 0.0 10091698
21:00+3wnw7135426 0.0 1010676